Regional Weather Roundup
Issued by NWS

Home | Current Version | Previous Version | Text Only | Print | Product List | Glossary Off
Versions: 1 2 3 4 5 6 7 8 9 10 11 12 13 14 15 16 17 18 19 20 21 22 23 24 25 26 27 28 29 30 31 32 33 34 35 36 37 38 39 40 41 42 43 44 45 46 47 48 49 50

000
ASUS43 KMPX 242301
RWRMN
WEATHER ROUNDUP FOR MINNESOTA
NATIONAL WEATHER SERVICE TWIN CITIES/CHANHASSEN MN
600 PM CDT SUN JUL 24 2016


NOTE: "FAIR" INDICATES FEW OR NO CLOUDS BELOW 12,000 FEET WITH NO
SIGNIFICANT WEATHER AND/OR OBSTRUCTIONS TO VISIBILITY. N/A MEANS
CURRENT SKY AND/OR WEATHER CONDITIONS ARE NOT AVAILABLE.

MNZ060>063-068>070-250000-
   Twin Cities Metro

CITY           SKY/WX    TMP DP  RH WIND       PRES   REMARKS
TWIN CITIES    CLOUDY    83  63  50 W15       29.93F
ST PAUL        MOSUNNY   82  62  50 W14G22    29.93S
CRYSTAL        CLOUDY    81  60  48 W15G22    29.92S
BLAINE         MOSUNNY   82  63  51 W15G24    29.93S
LAKEVILLE      PTSUNNY   79  64  61 W8        29.95S
EDEN PRAIRIE   MOSUNNY   83  62  49 W15G23    29.93F
LAKEVILLE      PTSUNNY   79  64  61 W8        29.95S
SOUTH ST PAUL  MOSUNNY   82  60  46 W10G17    29.93S
LAKE ELMO      FAIR      81  64  57 W13       29.94S
$$
MNZ001>005-007-008-013>017-022>024-027-028-250000-
   Northwest Minnesota

CITY           SKY/WX    TMP DP  RH WIND       PRES   REMARKS
BEMIDJI        MOSUNNY   77  59  53 NW20      29.90S
HALLOCK        MOSUNNY   79  61  53 W14G20    29.87R
ROSEAU         SUNNY     75  64  69 NW13G20   29.86R
WARROAD        SUNNY     75  63  64 W15G23    29.85R
THIEF RVR FALL PTSUNNY   78  63  59 NW12      29.91R
CROOKSTON      MOSUNNY   77  64  65 NW9       29.91R
FOSSTON        SUNNY     77  57  50 W16       29.93R
DETROIT LAKES  SUNNY     77  59  53 W15G21    29.96S
MOORHEAD       SUNNY     81  55  41 W18G26    29.95R
PARK RAPIDS    PTSUNNY   79  58  48 W17       29.92S
MAHNOMEN       FAIR      77  62  59 NW10      29.92S
$$
MNZ006-009>011-018-025>026-250000-
   North Central Minnesota

CITY           SKY/WX    TMP DP  RH WIND       PRES   REMARKS
BAUDETTE       MOSUNNY   76  60  57 W16G22    29.84R
FLAG ISLAND    CLOUDY    70  61  73 W17       29.82R
INTL FALLS     PTSUNNY   76  60  57 W13G20    29.82R
WASKISH        SUNNY     79  63  57 W14G24    29.87R
BIG FORK       SUNNY     79  59  50 W9G18     29.86S
LONGVILLE      PTSUNNY   77  63  61 W8        29.90S
GRAND RAPIDS   CLOUDY    77  61  57 W9        29.90S
CRANE LAKE     MOSUNNY   75  55  50 W10G20    29.83R
ORR            PTSUNNY   77  55  47 W10G17    29.81S
COOK           MOSUNNY   77  61  57 W9        29.85R
WALKER         FAIR      77  60  56 W16G22    29.91R
$$
MNZ012-019>021-037-250000-
   Northeast Minnesota

CITY           SKY/WX    TMP DP  RH WIND       PRES   REMARKS
DULUTH         CLOUDY    80  60  50 W17       29.87R
ELY            PTSUNNY   77  59  53 W13       29.83R
HIBBING        SUNNY     77  57  50 W9G18     29.86S
EVELETH        MOSUNNY   78  55  45 W17G23    29.87R
DULUTH HARBOR  PTSUNNY   82  64  54 W14       29.84R
TWO HARBORS    MOSUNNY   82  64  54 W10       29.82S
SILVER BAY     MOSUNNY   81  61  50 W6        29.80S
GRAND MARAIS     N/A     82  56  40 VRB7      29.75R
G MARAIS ARPRT MOSUNNY   73  54  49 W9G18     29.82S
$$
MNZ029>031-032-039>041-046>048-054>057-064-250000-
   West Central Minnesota

CITY           SKY/WX    TMP DP  RH WIND       PRES   REMARKS
FERGUS FALLS   MOSUNNY   79  59  50 NW15      29.97R
WHEATON        SUNNY     82  61  47 W10G18    29.99S
MORRIS         MOSUNNY   82  61  47 NW14      29.97R
ALEXANDRIA     MOSUNNY   80  56  43 W14G23    29.98S
ELBOW LAKE     FAIR      78  60  53 NW12      29.97F
WADENA         MOSUNNY   75  61  60 W10G17    29.94S
GLENWOOD       MOSUNNY   81  61  50 W15       29.98S
APPLETON       MOSUNNY   82  57  42 NW8       29.97S
BENSON         SUNNY     82  55  39 NW12      29.97S
ORTONVILLE     MOSUNNY   82  55  39 NW12      29.98S
MADISON        SUNNY     82  57  42 NW9G16    29.99S
WILLMAR        FAIR      81  63  54 W13       29.99S
$$
MNZ033>034-036-042>043-049>051-058-059-250000-
   Central Minnesota

CITY           SKY/WX    TMP DP  RH WIND       PRES   REMARKS
ST CLOUD       CLOUDY    79  64  60 W13       29.94S
SAUK CENTRE    FAIR      79  59  50 W13G22    29.97S
PAYNESVILLE    MOSUNNY   78  62  57 W13G18    29.97S
AITKIN         MOSUNNY   81  57  44 W3        29.90S
PINE RIVER     SUNNY     79  61  53 W8        29.95R
BRAINERD       MOSUNNY   79  60  52 W12       29.92S
STAPLES        MOSUNNY   79  57  47 W13G18    29.94S
LONG PRAIRIE   FAIR      77  59  53 W13G18    29.96S
LITTLE FALLS   PTSUNNY   79  57  47 W10       29.94S
LITCHFIELD     PTSUNNY   81  66  61 W12G17    29.97F
BUFFALO        CLOUDY    80  62  55 W13       29.96S
MAPLE LAKE     MOSUNNY   80  65  59 W9        29.95F
HUTCHINSON     SUNNY     79  66  65 W10G18    29.98S
$$
MNZ037-044-045-052-053-250000-
   East Central Minnesota

CITY           SKY/WX    TMP DP  RH WIND       PRES   REMARKS
PRINCETON      PTSUNNY   81  63  54 W9G16     29.94S
MORA           MOSUNNY   77  59  53 W13       29.93F
CAMBRIDGE      PTSUNNY   82  64  54 W10G16    29.91S
RUSH CITY      MOSUNNY   78  62  57 W7        29.92S
MOOSE LAKE     MOSUNNY   79  59  50 W8G17     29.88S
HINCKLEY       FAIR      79  63  57 W12G18    29.91S
CLOQUET        MOSUNNY   81  55  41 W14G21    29.88S
MCGREGOR       MOSUNNY   79  59  50 W10G17    29.90S
$$
MNZ071>073-080-081-089-090-097-098-250000-
   Southwest Minnesota

CITY           SKY/WX    TMP DP  RH WIND       PRES   REMARKS
MONTEVIDEO     SUNNY     81  63  54 NW6       30.00S
GRANITE FALLS  SUNNY     82  66  58 W9        30.00S
CANBY          MOSUNNY   81  59  46 NW8       30.01S
MARSHALL       SUNNY     80  64  58 NW14      30.00F
REDWOOD FALLS  CLOUDY    80  62  54 NW10      29.98S
OLIVIA         CLOUDY    79  64  61 W13       29.98S
PIPESTONE      CLOUDY    81  57  44 NW12G22   30.04S
WINDOM         CLOUDY    75  64  69 W9        30.00F
WORTHINGTON    CLOUDY    76  63  64 NW12      30.03S
JACKSON        CLOUDY    77  64  65 W7        30.02S
TRACY          MOSUNNY   80  66  61 NW8       30.01S
SLAYTON        RAIN      79  62  56 NW13      30.03F
$$
MNZ065>067-074>077-082>085-091>093-250000-
   South Central Minnesota

CITY           SKY/WX    TMP DP  RH WIND       PRES   REMARKS
MANKATO        CLOUDY    77  63  61 W14       29.97F
NEW ULM        CLOUDY    79  63  57 NW10      29.98F
ST JAMES       CLOUDY    72  61  68 NW6       29.99F
FAIRMONT       CLOUDY    73  48  40 N8        29.96F
GLENCOE        CLOUDY    78  68  69 W10G17    29.96F
FARIBAULT      CLOUDY    79  66  65 W7        29.96F
OWATONNA       CLOUDY    77  64  65 W7        29.97F
WASECA         CLOUDY    73  63  68 NW9       29.99S
ALBERT LEA     CLOUDY    75  64  69 NW7       29.97F
$$
MNZ078>079-086>088-094>096-250000-
   Southeast Minnesota

CITY           SKY/WX    TMP DP  RH WIND       PRES   REMARKS
ROCHESTER      MOSUNNY   75  65  70 NW8       29.96F
RED WING       MOSUNNY   84  63  48 W14       29.92S
STANTON        PTSUNNY   79  64  61 W8G16     29.94F
DODGE CENTER   CLOUDY    75  64  69 W8        29.98F
WINONA         MOSUNNY   81  63  54 NW13G18   29.92S
AUSTIN         CLOUDY    75  63  64 NW7       29.97F
PRESTON        PTSUNNY   76  63  64 NW13      29.97F
$$
ABBREVIATIONS USED IN REMARKS
   TC - TEMPERATURES IN CELSIUS
  WCI - WIND CHILL INDEX
   HX - HEAT INDEX
  VSB - VISIBILITY
$$



USA.gov is the U.S. government's official web portal to all federal, state and local government web resources and services.